| time (UTC) | temp F | wind direction | speed MPH | gust MPH | rain 1hr in | rain 24hr in | rain mn in | humidity % | barometer mb |
| 20260906092504 | 74 | 257 | 2.0 | 7.0 | 0.00 | 0.00 | 0.00 | 93 | 1012.2 |
| 20260906092004 | 73 | 333 | 2.0 | 6.0 | 0.00 | 0.00 | 0.00 | 93 | 1012.1 |
| 20260906091504 | 73 | 306 | 2.0 | 6.0 | 0.00 | 0.00 | 0.00 | 93 | 1012.0 |
| 20260906090504 | 74 | 344 | 2.0 | 5.0 | 0.00 | 0.00 | 0.00 | 93 | 1011.8 |
| 20260906090004 | 73 | 281 | 2.0 | 5.0 | 0.00 | 0.00 | 0.00 | 92 | 1011.7 |
| 20260906085503 | 73 | 283 | 2.0 | 5.0 | 0.00 | 0.00 | 0.00 | 93 | 1011.6 |
| 20260906085004 | 73 | 353 | 2.0 | 3.0 | 0.00 | 0.00 | 0.00 | 93 | 1011.8 |
| 20260906084504 | 73 | 321 | 1.0 | 3.0 | 0.00 | 0.00 | 0.00 | 93 | 1011.7 |
| 20260906084003 | 73 | 286 | 1.0 | 5.0 | 0.00 | 0.00 | 0.00 | 93 | 1011.7 |
| 20260906083504 | 74 | 317 | 2.0 | 5.0 | 0.00 | 0.00 | 0.00 | 93 | 1011.7 |
| 20260906083004 | 74 | 296 | 1.0 | 5.0 | 0.00 | 0.00 | 0.00 | 93 | 1011.7 |
| 20260906082505 | 74 | 296 | 2.0 | 5.0 | 0.00 | 0.00 | 0.00 | 93 | 1011.7 |
| 20260906082004 | 74 | 300 | 2.0 | 3.0 | 0.00 | 0.00 | 0.00 | 93 | 1011.7 |
| 20260906081504 | 74 | 283 | 2.0 | 3.0 | 0.00 | 0.00 | 0.00 | 93 | 1011.6 |
| 20260906081004 | 74 | 281 | 1.0 | 3.0 | 0.00 | 0.00 | 0.00 | 93 | 1011.5 |
| 20260906080004 | 74 | 341 | 1.0 | 6.0 | 0.00 | 0.00 | 0.00 | 92 | 1011.8 |
| 20260906075504 | 74 | 266 | 2.0 | 6.0 | 0.00 | 0.00 | 0.00 | 92 | 1011.8 |
| 20260906075004 | 75 | 297 | 3.0 | 7.0 | 0.00 | 0.00 | 0.00 | 92 | 1011.9 |
| 20260906074503 | 75 | 284 | 2.0 | 6.0 | 0.00 | 0.00 | 0.00 | 93 | 1011.9 |
| 20260906074004 | 75 | 251 | 2.0 | 8.0 | 0.00 | 0.00 | 0.00 | 93 | 1012.0 |
| 20260906073504 | 76 | 259 | 3.0 | 8.0 | 0.00 | 0.00 | 0.00 | 92 | 1012.2 |
| 20260906073004 | 77 | 295 | 5.0 | 10.0 | 0.00 | 0.00 | 0.00 | 92 | 1012.1 |
| 20260906072503 | 78 | 290 | 4.0 | 10.0 | 0.00 | 0.00 | 0.00 | 92 | 1011.8 |
| 20260906071504 | 78 | 290 | 2.0 | 5.0 | 0.00 | 0.00 | 0.00 | 93 | 1011.6 |
| 20260906071004 | 78 | 275 | 3.0 | 5.0 | 0.00 | 0.00 | 0.00 | 93 | 1011.5 |
| 20260906070504 | 78 | 6 | 0.0 | 1.0 | 0.00 | 0.00 | 0.00 | 93 | 1011.5 |
| 20260906070004 | 78 | 304 | 1.0 | 5.0 | 0.00 | 0.00 | 0.00 | 93 | 1011.5 |
| 20260906065503 | 78 | 54 | 1.0 | 6.0 | 0.00 | 0.00 | 0.00 | 93 | 1011.5 |
| 20260906065003 | 77 | 101 | 3.0 | 6.0 | 0.00 | 0.00 | 0.00 | 93 | 1011.4 |
| 20260906064504 | 77 | 77 | 3.0 | 5.0 | 0.00 | 0.00 | 0.00 | 94 | 1011.0 |
| 20260906064003 | 77 | 303 | 1.0 | 2.0 | 0.00 | 0.00 | 0.00 | 94 | 1010.8 |
| 20260906063504 | 77 | 16 | 0.0 | 2.0 | 0.00 | 0.00 | 0.00 | 94 | 1010.8 |
| 20260906063005 | 77 | 285 | 1.0 | 3.0 | 0.00 | 0.00 | 0.00 | 94 | 1010.7 |
| 20260906063003 | 77 | 286 | 1.0 | 3.0 | 0.00 | 0.00 | 0.00 | 94 | 1010.7 |
| 20260906062504 | 77 | 335 | 1.0 | 2.0 | 0.00 | 0.00 | 0.00 | 94 | 1010.7 |
| 20260906062004 | 77 | 249 | 1.0 | 2.0 | 0.00 | 0.00 | 0.00 | 94 | 1010.7 |
| 20260906061504 | 77 | 56 | 1.0 | 2.0 | 0.00 | 0.00 | 0.00 | 94 | 1010.8 |
| 20260906061004 | 77 | 46 | 0.0 | 2.0 | 0.00 | 0.00 | 0.00 | 94 | 1010.9 |
| 20260906060504 | 77 | 292 | 1.0 | 3.0 | 0.00 | 0.00 | 0.00 | 94 | 1011.0 |
| 20260906060004 | 77 | 286 | 2.0 | 2.0 | 0.00 | 0.00 | 0.00 | 94 | 1011.1 |
| 20260906055503 | 77 | 270 | 1.0 | 3.0 | 0.00 | 0.00 | 0.00 | 94 | 1011.0 |
| 20260906054504 | 76 | 295 | 0.0 | 2.0 | 0.00 | 0.00 | 0.00 | 94 | 1011.2 |
| 20260906054004 | 76 | 337 | 1.0 | 2.0 | 0.00 | 0.00 | 0.00 | 94 | 1011.3 |
| 20260906053504 | 76 | 26 | 1.0 | 2.0 | 0.00 | 0.00 | 0.00 | 94 | 1011.4 |
| 20260906053004 | 76 | 304 | 1.0 | 3.0 | 0.00 | 0.00 | 0.00 | 94 | 1011.5 |
| 20260906052504 | 76 | 21 | 1.0 | 3.0 | 0.00 | 0.00 | 0.00 | 94 | 1011.7 |
| 20260906052004 | 76 | 17 | 1.0 | 2.0 | 0.00 | 0.00 | 0.00 | 94 | 1011.8 |
| 20260906051504 | 76 | 321 | 1.0 | 2.0 | 0.00 | 0.00 | 0.00 | 93 | 1012.0 |
| 20260906051004 | 76 | 49 | 1.0 | 2.0 | 0.00 | 0.00 | 0.00 | 93 | 1012.1 |
| 20260906050504 | 76 | 300 | 1.0 | 2.0 | 0.00 | 0.00 | 0.00 | 93 | 1012.1 |
| 20260906050004 | 76 | 279 | 1.0 | 2.0 | 0.00 | 0.00 | 0.00 | 93 | 1012.3 |
| 20260906045503 | 76 | 285 | 1.0 | 2.0 | 0.00 | 0.00 | 0.00 | 93 | 1012.2 |
| 20260906045004 | 76 | 37 | 1.0 | 2.0 | 0.00 | 0.00 | 0.00 | 93 | 1012.3 |
| 20260906044004 | 76 | 284 | 2.0 | 2.0 | 0.00 | 0.00 | 0.00 | 92 | 1012.3 |
| 20260906043504 | 76 | 80 | 0.0 | 2.0 | 0.00 | 0.00 | 0.00 | 92 | 1012.4 |
| 20260906043004 | 76 | 42 | 1.0 | 2.0 | 0.00 | 0.00 | 0.00 | 92 | 1012.5 |
| 20260906042503 | 76 | 340 | 1.0 | 2.0 | 0.00 | 0.00 | 0.00 | 91 | 1012.6 |
| 20260906042004 | 76 | 345 | 1.0 | 2.0 | 0.00 | 0.00 | 0.00 | 90 | 1012.8 |
| 20260906041503 | 76 | 102 | 1.0 | 3.0 | 0.00 | 0.00 | 0.00 | 90 | 1012.8 |
| 20260906041004 | 77 | 347 | 1.0 | 3.0 | 0.00 | 0.00 | 0.00 | 89 | 1013.3 |
| 20260906040504 | 77 | 80 | 2.0 | 5.0 | 0.00 | 0.00 | 0.00 | 87 | 1013.7 |
| 20260906040004 | 78 | 301 | 1.0 | 5.0 | 0.00 | 0.00 | 0.00 | 86 | 1014.0 |
| 20260906035504 | 79 | 263 | 1.0 | 3.0 | 0.00 | 0.00 | 0.00 | 86 | 1013.8 |
| 20260906035004 | 80 | 256 | 4.0 | 10.0 | 0.00 | 0.00 | 0.00 | 85 | 1014.2 |
| 20260906034505 | 81 | 277 | 3.0 | 9.0 | 0.00 | 0.00 | 0.00 | 88 | 1014.0 |
| 20260906034004 | 82 | 97 | 3.0 | 9.0 | 0.00 | 0.00 | 0.00 | 83 | 1015.1 |
| 20260906033504 | 82 | 126 | 3.0 | 9.0 | 0.00 | 0.00 | 0.00 | 83 | 1015.1 |
| 20260906033003 | 82 | 57 | 5.0 | 9.0 | 0.00 | 0.00 | 0.00 | 83 | 1015.0 |
| 20260906032503 | 82 | 121 | 3.0 | 5.0 | 0.00 | 0.00 | 0.00 | 81 | 1015.0 |
| 20260906032003 | 82 | 98 | 1.0 | 3.0 | 0.00 | 0.00 | 0.00 | 81 | 1014.7 |
| 20260906031504 | 82 | 82 | 1.0 | 2.0 | 0.00 | 0.00 | 0.00 | 81 | 1014.7 |
| 20260906031004 | 82 | 116 | 1.0 | 2.0 | 0.00 | 0.00 | 0.00 | 81 | 1014.6 |
| 20260906030504 | 82 | 307 | 2.0 | 3.0 | 0.00 | 0.00 | 0.00 | 81 | 1014.6 |
| 20260906030003 | 82 | 9 | 1.0 | 3.0 | 0.00 | 0.00 | 0.00 | 82 | 1014.5 |
| 20260906025503 | 83 | 353 | 1.0 | 2.0 | 0.00 | 0.00 | 0.00 | 82 | 1014.4 |
| 20260906025004 | 83 | 323 | 2.0 | 2.0 | 0.00 | 0.00 | 0.00 | 81 | 1014.4 |
| 20260906024503 | 83 | 290 | 0.0 | 2.0 | 0.00 | 0.00 | 0.00 | 81 | 1014.3 |
| 20260906024004 | 83 | 98 | 0.0 | 2.0 | 0.00 | 0.00 | 0.00 | 81 | 1014.4 |
| 20260906023003 | 83 | 345 | 1.0 | 3.0 | 0.00 | 0.00 | 0.00 | 80 | 1014.4 |
| 20260906022503 | 83 | 299 | 1.0 | 3.0 | 0.00 | 0.00 | 0.00 | 80 | 1014.5 |
| 20260906022004 | 83 | 303 | 2.0 | 3.0 | 0.00 | 0.00 | 0.00 | 80 | 1014.5 |
| 20260906021504 | 83 | 333 | 1.0 | 3.0 | 0.00 | 0.00 | 0.00 | 79 | 1014.5 |
| 20260906021004 | 83 | 282 | 2.0 | 3.0 | 0.00 | 0.00 | 0.00 | 79 | 1014.5 |
| 20260906020504 | 84 | 296 | 1.0 | 2.0 | 0.00 | 0.00 | 0.00 | 79 | 1014.5 |
| 20260906020004 | 84 | 29 | 1.0 | 2.0 | 0.00 | 0.00 | 0.00 | 78 | 1014.6 |
| 20260906015503 | 84 | 342 | 1.0 | 2.0 | 0.00 | 0.00 | 0.00 | 78 | 1014.6 |
| 20260906015004 | 84 | 278 | 1.0 | 3.0 | 0.00 | 0.00 | 0.00 | 78 | 1014.5 |
| 20260906014503 | 84 | 74 | 1.0 | 3.0 | 0.00 | 0.00 | 0.00 | 78 | 1014.4 |
| 20260906014003 | 84 | 272 | 2.0 | 3.0 | 0.00 | 0.00 | 0.00 | 77 | 1014.3 |
| 20260906013504 | 84 | 295 | 2.0 | 3.0 | 0.00 | 0.00 | 0.00 | 77 | 1014.3 |
| 20260906013004 | 84 | 284 | 2.0 | 5.0 | 0.00 | 0.00 | 0.00 | 76 | 1014.1 |
| 20260906012504 | 85 | 303 | 1.0 | 6.0 | 0.00 | 0.00 | 0.00 | 76 | 1014.1 |
| 20260906012003 | 85 | 290 | 3.0 | 6.0 | 0.00 | 0.00 | 0.00 | 76 | 1014.0 |
| 20260906011504 | 85 | 265 | 2.0 | 6.0 | 0.00 | 0.00 | 0.00 | 75 | 1014.0 |
| 20260906011004 | 85 | 315 | 2.0 | 6.0 | 0.00 | 0.00 | 0.00 | 75 | 1013.9 |
| 20260906010504 | 85 | 124 | 2.0 | 6.0 | 0.00 | 0.00 | 0.00 | 76 | 1013.7 |
| 20260906010004 | 86 | 296 | 2.0 | 6.0 | 0.00 | 0.00 | 0.00 | 76 | 1013.6 |
| 20260906005504 | 86 | 1 | 2.0 | 6.0 | 0.00 | 0.00 | 0.00 | 75 | 1013.7 |
| 20260906005003 | 86 | 72 | 2.0 | 5.0 | 0.00 | 0.00 | 0.00 | 74 | 1013.8 |
| 20260906004504 | 86 | 6 | 2.0 | 5.0 | 0.00 | 0.00 | 0.00 | 73 | 1013.8 |
| 20260906004004 | 87 | 358 | 1.0 | 3.0 | 0.00 | 0.00 | 0.00 | 72 | 1013.9 |
| 20260906003504 | 87 | 47 | 1.0 | 3.0 | 0.00 | 0.00 | 0.00 | 72 | 1013.9 |
| 20260906003004 | 87 | 18 | 2.0 | 5.0 | 0.00 | 0.00 | 0.00 | 71 | 1014.0 |
| 20260906002504 | 88 | 266 | 2.0 | 3.0 | 0.00 | 0.00 | 0.00 | 70 | 1014.0 |
| 20260906002004 | 88 | 307 | 1.0 | 3.0 | 0.00 | 0.00 | 0.00 | 69 | 1013.9 |
| 20260906001503 | 88 | 261 | 2.0 | 5.0 | 0.00 | 0.00 | 0.00 | 68 | 1013.9 |
| 20260906001004 | 89 | 252 | 2.0 | 5.0 | 0.00 | 0.00 | 0.00 | 66 | 1013.9 |
| 20260906000504 | 90 | 249 | 2.0 | 3.0 | 0.00 | 0.00 | 0.00 | 63 | 1014.0 |
| 20260906000003 | 91 | 248 | 2.0 | 3.0 | 0.00 | 0.00 | 0.00 | 60 | 1014.0 |
| 20260905235504 | 91 | 278 | 1.0 | 3.0 | 0.00 | 0.00 | 0.00 | 57 | 1014.0 |
| 20260905235004 | 91 | 329 | 2.0 | 5.0 | 0.00 | 0.00 | 0.00 | 56 | 1014.0 |
| 20260905234504 | 92 | 264 | 2.0 | 5.0 | 0.00 | 0.00 | 0.00 | 55 | 1014.0 |
| 20260905234003 | 92 | 332 | 1.0 | 3.0 | 0.00 | 0.00 | 0.00 | 55 | 1014.0 |
| 20260905233504 | 92 | 288 | 2.0 | 3.0 | 0.00 | 0.00 | 0.00 | 55 | 1014.0 |
| 20260905233004 | 92 | 285 | 2.0 | 5.0 | 0.00 | 0.00 | 0.00 | 55 | 1014.0 |
| 20260905232504 | 93 | 272 | 2.0 | 6.0 | 0.00 | 0.00 | 0.00 | 54 | 1013.9 |
| 20260905232003 | 93 | 284 | 1.0 | 6.0 | 0.00 | 0.00 | 0.00 | 54 | 1014.0 |
| 20260905231504 | 93 | 261 | 2.0 | 5.0 | 0.00 | 0.00 | 0.00 | 53 | 1013.9 |
| 20260905231004 | 94 | 285 | 2.0 | 5.0 | 0.00 | 0.00 | 0.00 | 53 | 1013.9 |
| 20260905230504 | 94 | 257 | 1.0 | 5.0 | 0.00 | 0.00 | 0.00 | 52 | 1013.9 |
| 20260905230004 | 95 | 291 | 3.0 | 6.0 | 0.00 | 0.00 | 0.00 | 51 | 1013.9 |
| 20260905225504 | 95 | 269 | 2.0 | 6.0 | 0.00 | 0.00 | 0.00 | 50 | 1013.9 |
| 20260905225004 | 95 | 288 | 2.0 | 6.0 | 0.00 | 0.00 | 0.00 | 51 | 1013.9 |
| 20260905224504 | 96 | 287 | 1.0 | 6.0 | 0.00 | 0.00 | 0.00 | 51 | 1013.9 |
| 20260905224004 | 96 | 294 | 3.0 | 6.0 | 0.00 | 0.00 | 0.00 | 50 | 1013.9 |
| 20260905223004 | 97 | 280 | 2.0 | 5.0 | 0.00 | 0.00 | 0.00 | 50 | 1013.8 |
| 20260905222504 | 96 | 100 | 1.0 | 3.0 | 0.00 | 0.00 | 0.00 | 49 | 1013.7 |
| 20260905222004 | 95 | 61 | 1.0 | 3.0 | 0.00 | 0.00 | 0.00 | 50 | 1013.7 |
| 20260905221504 | 95 | 108 | 1.0 | 3.0 | 0.00 | 0.00 | 0.00 | 50 | 1013.7 |
| 20260905221003 | 95 | 114 | 1.0 | 3.0 | 0.00 | 0.00 | 0.00 | 51 | 1013.8 |
| 20260905220504 | 95 | 149 | 1.0 | 3.0 | 0.00 | 0.00 | 0.00 | 51 | 1013.8 |
| 20260905220004 | 95 | 129 | 1.0 | 3.0 | 0.00 | 0.00 | 0.00 | 51 | 1013.8 |
| 20260905215504 | 95 | 116 | 2.0 | 6.0 | 0.00 | 0.00 | 0.00 | 51 | 1013.8 |
| 20260905215004 | 95 | 138 | 2.0 | 6.0 | 0.00 | 0.00 | 0.00 | 50 | 1013.8 |
| 20260905214504 | 96 | 129 | 2.0 | 7.0 | 0.00 | 0.00 | 0.00 | 50 | 1013.8 |
| 20260905214004 | 96 | 295 | 3.0 | 8.0 | 0.00 | 0.00 | 0.00 | 50 | 1013.7 |
| 20260905213504 | 97 | 95 | 3.0 | 8.0 | 0.00 | 0.00 | 0.00 | 48 | 1013.8 |
| 20260905213004 | 98 | 291 | 4.0 | 7.0 | 0.00 | 0.00 | 0.00 | 46 | 1013.7 |
| 20260905212503 | 98 | 300 | 3.0 | 7.0 | 0.00 | 0.00 | 0.00 | 46 | 1013.7 |
| 20260905212004 | 97 | 21 | 1.0 | 6.0 | 0.00 | 0.00 | 0.00 | 46 | 1013.8 |
| 20260905211504 | 97 | 63 | 3.0 | 6.0 | 0.00 | 0.00 | 0.00 | 47 | 1013.9 |
| 20260905211004 | 97 | 290 | 2.0 | 5.0 | 0.00 | 0.00 | 0.00 | 44 | 1013.8 |
| 20260905210504 | 96 | 352 | 3.0 | 6.0 | 0.00 | 0.00 | 0.00 | 46 | 1013.9 |
| 20260905210004 | 96 | 64 | 3.0 | 6.0 | 0.00 | 0.00 | 0.00 | 48 | 1013.9 |
| 20260905205504 | 96 | 137 | 2.0 | 6.0 | 0.00 | 0.00 | 0.00 | 47 | 1013.9 |
| 20260905205004 | 96 | 119 | 2.0 | 6.0 | 0.00 | 0.00 | 0.00 | 48 | 1014.0 |
| 20260905204504 | 96 | 77 | 2.0 | 8.0 | 0.00 | 0.00 | 0.00 | 49 | 1014.1 |
| 20260905204004 | 97 | 51 | 4.0 | 8.0 | 0.00 | 0.00 | 0.00 | 49 | 1014.0 |
| 20260905203504 | 98 | 59 | 3.0 | 6.0 | 0.00 | 0.00 | 0.00 | 46 | 1014.0 |
| 20260905203004 | 98 | 73 | 4.0 | 8.0 | 0.00 | 0.00 | 0.00 | 47 | 1014.1 |
| 20260905202503 | 97 | 61 | 1.0 | 8.0 | 0.00 | 0.00 | 0.00 | 46 | 1014.0 |
| 20260905202004 | 97 | 255 | 4.0 | 9.0 | 0.00 | 0.00 | 0.00 | 47 | 1014.1 |
| 20260905201503 | 97 | 278 | 5.0 | 9.0 | 0.00 | 0.00 | 0.00 | 46 | 1014.1 |
| 20260905201004 | 97 | 102 | 3.0 | 8.0 | 0.00 | 0.00 | 0.00 | 47 | 1014.1 |
| 20260905200504 | 98 | 65 | 5.0 | 7.0 | 0.00 | 0.00 | 0.00 | 45 | 1014.1 |
| 20260905200004 | 98 | 30 | 1.0 | 8.0 | 0.00 | 0.00 | 0.00 | 45 | 1014.2 |
| 20260905195504 | 98 | 138 | 2.0 | 8.0 | 0.00 | 0.00 | 0.00 | 46 | 1014.3 |
| 20260905195004 | 98 | 94 | 3.0 | 8.0 | 0.00 | 0.00 | 0.00 | 47 | 1014.4 |
| 20260905194503 | 98 | 68 | 2.0 | 7.0 | 0.00 | 0.00 | 0.00 | 46 | 1014.4 |
| 20260905194004 | 97 | 78 | 2.0 | 6.0 | 0.00 | 0.00 | 0.00 | 46 | 1014.5 |
| 20260905193504 | 97 | 84 | 3.0 | 7.0 | 0.00 | 0.00 | 0.00 | 46 | 1014.5 |
| 20260905193004 | 96 | 126 | 3.0 | 7.0 | 0.00 | 0.00 | 0.00 | 47 | 1014.6 |
| 20260905192504 | 96 | 44 | 2.0 | 8.0 | 0.00 | 0.00 | 0.00 | 47 | 1014.6 |
| 20260905192004 | 96 | 278 | 3.0 | 9.0 | 0.00 | 0.00 | 0.00 | 50 | 1014.7 |
| 20260905191505 | 96 | 52 | 3.0 | 9.0 | 0.00 | 0.00 | 0.00 | 49 | 1014.8 |
| 20260905191004 | 95 | 266 | 3.0 | 7.0 | 0.00 | 0.00 | 0.00 | 49 | 1014.8 |
| 20260905190504 | 95 | 280 | 3.0 | 6.0 | 0.00 | 0.00 | 0.00 | 50 | 1014.9 |
| 20260905190004 | 95 | 287 | 3.0 | 6.0 | 0.00 | 0.00 | 0.00 | 51 | 1015.0 |
| 20260905185504 | 95 | 30 | 3.0 | 5.0 | 0.00 | 0.00 | 0.00 | 50 | 1015.1 |
| 20260905185004 | 96 | 46 | 4.0 | 9.0 | 0.00 | 0.00 | 0.00 | 50 | 1015.1 |
| 20260905184504 | 96 | 67 | 2.0 | 6.0 | 0.00 | 0.00 | 0.00 | 50 | 1015.2 |
| 20260905184004 | 97 | 225 | 2.0 | 5.0 | 0.00 | 0.00 | 0.00 | 50 | 1015.2 |
| 20260905183504 | 97 | 78 | 2.0 | 5.0 | 0.00 | 0.00 | 0.00 | 50 | 1015.3 |
| 20260905183004 | 96 | 93 | 1.0 | 5.0 | 0.00 | 0.00 | 0.00 | 50 | 1015.4 |
| 20260905182504 | 95 | 274 | 4.0 | 7.0 | 0.00 | 0.00 | 0.00 | 52 | 1015.4 |
| 20260905182004 | 95 | 279 | 4.0 | 8.0 | 0.00 | 0.00 | 0.00 | 51 | 1015.5 |
| 20260905181504 | 96 | 261 | 4.0 | 8.0 | 0.00 | 0.00 | 0.00 | 51 | 1015.6 |
| 20260905181004 | 95 | 351 | 2.0 | 7.0 | 0.00 | 0.00 | 0.00 | 50 | 1015.6 |
| 20260905180504 | 95 | 99 | 3.0 | 7.0 | 0.00 | 0.00 | 0.00 | 49 | 1015.7 |
| 20260905180004 | 95 | 107 | 3.0 | 7.0 | 0.00 | 0.00 | 0.00 | 52 | 1015.9 |
| 20260905175504 | 95 | 220 | 3.0 | 7.0 | 0.00 | 0.00 | 0.00 | 53 | 1016.0 |
| 20260905175004 | 95 | 67 | 2.0 | 6.0 | 0.00 | 0.00 | 0.00 | 52 | 1016.0 |
| 20260905174504 | 96 | 154 | 4.0 | 8.0 | 0.00 | 0.00 | 0.00 | 52 | 1016.0 |
| 20260905174004 | 96 | 102 | 4.0 | 8.0 | 0.00 | 0.00 | 0.00 | 52 | 1016.0 |
| 20260905173504 | 95 | 151 | 2.0 | 6.0 | 0.00 | 0.00 | 0.00 | 50 | 1016.1 |
| 20260905173004 | 94 | 114 | 2.0 | 6.0 | 0.00 | 0.00 | 0.00 | 51 | 1016.1 |
| 20260905172504 | 93 | 129 | 2.0 | 6.0 | 0.00 | 0.00 | 0.00 | 52 | 1016.1 |
| 20260905172004 | 93 | 60 | 5.0 | 8.0 | 0.00 | 0.00 | 0.00 | 53 | 1016.2 |
| 20260905171004 | 92 | 60 | 2.0 | 6.0 | 0.00 | 0.00 | 0.00 | 56 | 1016.3 |
| 20260905170504 | 92 | 64 | 3.0 | 6.0 | 0.00 | 0.00 | 0.00 | 56 | 1016.4 |
| 20260905170003 | 91 | 63 | 3.0 | 7.0 | 0.00 | 0.00 | 0.00 | 57 | 1016.5 |
| 20260905165504 | 91 | 217 | 2.0 | 6.0 | 0.00 | 0.00 | 0.00 | 58 | 1016.6 |
| 20260905165004 | 91 | 46 | 1.0 | 8.0 | 0.00 | 0.00 | 0.00 | 58 | 1016.6 |
| 20260905164504 | 92 | 140 | 3.0 | 8.0 | 0.00 | 0.00 | 0.00 | 58 | 1016.6 |
| 20260905164004 | 92 | 257 | 2.0 | 8.0 | 0.00 | 0.00 | 0.00 | 58 | 1016.6 |
| 20260905163503 | 93 | 44 | 3.0 | 8.0 | 0.00 | 0.00 | 0.00 | 56 | 1016.7 |
| 20260905163004 | 93 | 357 | 2.0 | 6.0 | 0.00 | 0.00 | 0.00 | 56 | 1016.7 |
| 20260905162504 | 92 | 69 | 2.0 | 6.0 | 0.00 | 0.00 | 0.00 | 57 | 1016.7 |
| 20260905162004 | 92 | 68 | 4.0 | 9.0 | 0.00 | 0.00 | 0.00 | 58 | 1016.8 |
| 20260905161504 | 91 | 264 | 5.0 | 9.0 | 0.00 | 0.00 | 0.00 | 59 | 1016.8 |
| 20260905161004 | 92 | 289 | 3.0 | 9.0 | 0.00 | 0.00 | 0.00 | 58 | 1016.7 |
| 20260905160504 | 91 | 254 | 3.0 | 9.0 | 0.00 | 0.00 | 0.00 | 59 | 1016.7 |
| 20260905160004 | 91 | 85 | 5.0 | 9.0 | 0.00 | 0.00 | 0.00 | 60 | 1016.8 |
| 20260905155505 | 91 | 66 | 3.0 | 8.0 | 0.00 | 0.00 | 0.00 | 60 | 1016.8 |
| 20260905155003 | 91 | 255 | 5.0 | 9.0 | 0.00 | 0.00 | 0.00 | 59 | 1016.8 |
| 20260905154504 | 91 | 7 | 3.0 | 7.0 | 0.00 | 0.00 | 0.00 | 60 | 1016.8 |
| 20260905153504 | 90 | 334 | 3.0 | 7.0 | 0.00 | 0.00 | 0.00 | 60 | 1016.8 |
| 20260905153003 | 90 | 276 | 5.0 | 7.0 | 0.00 | 0.00 | 0.00 | 62 | 1016.8 |
| 20260905152504 | 91 | 275 | 5.0 | 9.0 | 0.00 | 0.00 | 0.00 | 62 | 1016.8 |
| 20260905152004 | 90 | 298 | 2.0 | 6.0 | 0.00 | 0.00 | 0.00 | 60 | 1016.8 |
| 20260905151004 | 90 | 338 | 2.0 | 6.0 | 0.00 | 0.00 | 0.00 | 62 | 1016.9 |
| 20260905150504 | 89 | 42 | 2.0 | 5.0 | 0.00 | 0.00 | 0.00 | 62 | 1016.9 |
| 20260905150004 | 89 | 292 | 2.0 | 5.0 | 0.00 | 0.00 | 0.00 | 64 | 1016.9 |
| 20260905145504 | 89 | 332 | 3.0 | 7.0 | 0.00 | 0.00 | 0.00 | 64 | 1016.9 |
| 20260905145004 | 89 | 47 | 3.0 | 6.0 | 0.00 | 0.00 | 0.00 | 64 | 1016.9 |
| 20260905144504 | 89 | 51 | 3.0 | 6.0 | 0.00 | 0.00 | 0.00 | 64 | 1016.9 |
| 20260905144004 | 88 | 19 | 3.0 | 6.0 | 0.00 | 0.00 | 0.00 | 65 | 1016.9 |
| 20260905143504 | 88 | 84 | 2.0 | 6.0 | 0.00 | 0.00 | 0.00 | 65 | 1016.9 |
| 20260905143004 | 87 | 63 | 2.0 | 7.0 | 0.00 | 0.00 | 0.00 | 66 | 1016.9 |
| 20260905142504 | 87 | 67 | 3.0 | 7.0 | 0.00 | 0.00 | 0.00 | 66 | 1016.9 |
| 20260905142004 | 87 | 279 | 2.0 | 5.0 | 0.00 | 0.00 | 0.00 | 66 | 1016.9 |
| 20260905141504 | 86 | 14 | 2.0 | 5.0 | 0.00 | 0.00 | 0.00 | 68 | 1016.9 |
| 20260905141004 | 85 | 274 | 3.0 | 8.0 | 0.00 | 0.00 | 0.00 | 70 | 1016.9 |
| 20260905140003 | 85 | 249 | 5.0 | 8.0 | 0.00 | 0.00 | 0.00 | 71 | 1017.0 |
| 20260905135503 | 84 | 277 | 2.0 | 7.0 | 0.00 | 0.00 | 0.00 | 71 | 1017.0 |
| 20260905135004 | 84 | 260 | 3.0 | 7.0 | 0.00 | 0.00 | 0.00 | 72 | 1016.9 |
| 20260905134504 | 84 | 264 | 3.0 | 6.0 | 0.00 | 0.00 | 0.00 | 72 | 1016.9 |
| 20260905134004 | 84 | 306 | 1.0 | 6.0 | 0.00 | 0.00 | 0.00 | 74 | 1016.9 |
| 20260905133504 | 84 | 262 | 2.0 | 5.0 | 0.00 | 0.00 | 0.00 | 74 | 1016.9 |
| 20260905133003 | 83 | 66 | 2.0 | 5.0 | 0.00 | 0.00 | 0.00 | 74 | 1016.9 |
| 20260905132504 | 83 | 27 | 2.0 | 5.0 | 0.00 | 0.00 | 0.00 | 75 | 1016.9 |
| 20260905132003 | 82 | 60 | 1.0 | 5.0 | 0.00 | 0.00 | 0.00 | 76 | 1016.9 |
| 20260905131504 | 82 | 313 | 2.0 | 5.0 | 0.00 | 0.00 | 0.00 | 78 | 1016.8 |
| 20260905131004 | 82 | 271 | 2.0 | 5.0 | 0.00 | 0.00 | 0.00 | 78 | 1016.8 |
| 20260905130504 | 82 | 259 | 1.0 | 3.0 | 0.00 | 0.00 | 0.00 | 78 | 1016.8 |
| 20260905130003 | 82 | 253 | 4.0 | 8.0 | 0.00 | 0.00 | 0.00 | 79 | 1016.7 |
| 20260905125503 | 82 | 303 | 1.0 | 3.0 | 0.00 | 0.00 | 0.00 | 78 | 1016.7 |
| 20260905125004 | 81 | 2 | 1.0 | 2.0 | 0.00 | 0.00 | 0.00 | 79 | 1016.6 |
| 20260905124504 | 80 | 352 | 1.0 | 3.0 | 0.00 | 0.00 | 0.00 | 80 | 1016.5 |
| 20260905124004 | 79 | 342 | 1.0 | 3.0 | 0.00 | 0.00 | 0.00 | 81 | 1016.4 |
| 20260905123504 | 79 | 277 | 1.0 | 3.0 | 0.00 | 0.00 | 0.00 | 83 | 1016.2 |
| 20260905123004 | 78 | 323 | 1.0 | 2.0 | 0.00 | 0.00 | 0.00 | 84 | 1015.9 |
| 20260905122503 | 77 | 220 | 1.0 | 2.0 | 0.00 | 0.00 | 0.00 | 85 | 1015.9 |
| 20260905122004 | 77 | 303 | 0.0 | 2.0 | 0.00 | 0.00 | 0.00 | 85 | 1015.6 |
| 20260905121504 | 76 | 286 | 2.0 | 2.0 | 0.00 | 0.00 | 0.00 | 86 | 1015.5 |
| 20260905121004 | 76 | 305 | 1.0 | 3.0 | 0.00 | 0.00 | 0.00 | 87 | 1015.3 |
| 20260905120504 | 75 | 286 | 2.0 | 3.0 | 0.00 | 0.00 | 0.00 | 88 | 1015.1 |
| 20260905120004 | 75 | 285 | 1.0 | 2.0 | 0.00 | 0.00 | 0.00 | 88 | 1014.9 |
| 20260905115503 | 75 | 287 | 1.0 | 2.0 | 0.00 | 0.00 | 0.00 | 88 | 1014.8 |
| 20260905114504 | 75 | 266 | 1.0 | 2.0 | 0.00 | 0.00 | 0.00 | 89 | 1014.8 |
| 20260905114004 | 75 | 41 | 1.0 | 2.0 | 0.00 | 0.00 | 0.00 | 88 | 1014.8 |
| 20260905113504 | 75 | 246 | 1.0 | 2.0 | 0.00 | 0.00 | 0.00 | 88 | 1014.8 |
| 20260905113004 | 75 | 349 | 1.0 | 2.0 | 0.00 | 0.00 | 0.00 | 88 | 1014.8 |
| 20260905112503 | 75 | 295 | 1.0 | 3.0 | 0.00 | 0.00 | 0.00 | 89 | 1014.7 |
| 20260905112005 | 75 | 286 | 1.0 | 2.0 | 0.00 | 0.00 | 0.00 | 88 | 1014.6 |
| 20260905111504 | 75 | 287 | 1.0 | 2.0 | 0.00 | 0.00 | 0.00 | 88 | 1014.6 |
| 20260905111005 | 75 | 240 | 1.0 | 2.0 | 0.00 | 0.00 | 0.00 | 88 | 1014.7 |
| 20260905110504 | 75 | 274 | 1.0 | 2.0 | 0.00 | 0.00 | 0.00 | 88 | 1014.7 |
| 20260905110004 | 75 | 269 | 1.0 | 2.0 | 0.00 | 0.00 | 0.00 | 88 | 1014.7 |
| 20260905105504 | 75 | 289 | 1.0 | 2.0 | 0.00 | 0.00 | 0.00 | 88 | 1014.8 |
| 20260905105004 | 75 | 284 | 2.0 | 2.0 | 0.00 | 0.00 | 0.00 | 88 | 1014.8 |
| 20260905104504 | 75 | 283 | 1.0 | 2.0 | 0.00 | 0.00 | 0.00 | 88 | 1014.8 |
| 20260905104003 | 75 | 261 | 2.0 | 2.0 | 0.00 | 0.00 | 0.00 | 87 | 1014.8 |
| 20260905103504 | 76 | 293 | 1.0 | 2.0 | 0.00 | 0.00 | 0.00 | 87 | 1014.9 |
| 20260905103004 | 76 | 69 | 1.0 | 2.0 | 0.00 | 0.00 | 0.00 | 87 | 1014.9 |
| 20260905102504 | 76 | 274 | 1.0 | 2.0 | 0.00 | 0.00 | 0.00 | 87 | 1014.9 |
| 20260905102004 | 76 | 299 | 1.0 | 3.0 | 0.00 | 0.00 | 0.00 | 87 | 1014.9 |
| 20260905101505 | 76 | 287 | 2.0 | 3.0 | 0.00 | 0.00 | 0.00 | 87 | 1014.8 |
| 20260905101004 | 76 | 283 | 2.0 | 3.0 | 0.00 | 0.00 | 0.00 | 86 | 1014.9 |
| 20260905100503 | 76 | 254 | 1.0 | 2.0 | 0.00 | 0.00 | 0.00 | 86 | 1015.0 |
| 20260905095504 | 76 | 285 | 2.0 | 2.0 | 0.00 | 0.00 | 0.00 | 86 | 1015.1 |
| 20260905095004 | 77 | 301 | 1.0 | 2.0 | 0.00 | 0.00 | 0.00 | 85 | 1015.2 |
| 20260905094504 | 77 | 101 | 1.0 | 2.0 | 0.00 | 0.00 | 0.00 | 85 | 1015.2 |
| 20260905094004 | 77 | 285 | 1.0 | 3.0 | 0.00 | 0.00 | 0.00 | 85 | 1015.2 |
| 20260905093504 | 77 | 295 | 2.0 | 3.0 | 0.00 | 0.00 | 0.00 | 85 | 1015.3 |
| 20260905093003 | 77 | 311 | 2.0 | 3.0 | 0.00 | 0.00 | 0.00 | 85 | 1015.2 |